Wind_Speed
12 10 9 9 10 10 11 12 12 11 11 12 13 14 15 15 14 14 13 13 15 17 18 20 22 23 24 25 25 24 24 24 25 26 28 29 28 28 27 27 26 25
11 10 9 9 10 10 11 12 11 10 10 12 13 14 14 13 13 12 12 12 14 16 17 18 20 22 24 24 24 25 25 24 23 23 24 25 25 24 23 22 22 22
11 10 9 9 10 11 11 12 10 9 10 11 12 13 14 13 12 11 11 11 12 15 16 17 19 21 23 24 24 25 26 25 24 23 22 22 22 22 21 20 20 20
11 10 10 9 10 11 11 11 9 9 9 10 11 12 13 13 11 10 10 10 11 14 15 15 18 20 22 23 23 24 26 26 25 24 23 23 23 22 21 21 21 21
11 11 10 10 10 11 11 11 10 9 9 10 10 11 12 12 11 10 10 9 10 12 13 14 16 19 20 21 22 23 25 26 25 25 24 24 24 23 22 22 22 22
11 11 11 10 10 11 11 12 11 9 9 9 9 9 11 11 11 11 10 9 9 10 11 12 14 17 19 20 21 22 23 24 25 24 24 24 24 24 23 23 23 22
11 12 11 10 10 11 11 12 12 9 9 9 9 8 10 10 10 11 10 9 9 9 9 11 12 14 17 18 19 20 21 22 22 23 24 24 25 25 26 26 25 24
11 12 12 11 10 10 10 12 11 10 9 9 8 9 9 10 10 10 11 9 8 8 8 8 10 12 14 16 18 18 19 19 20 21 22 23 24 25 25 25 25 25
11 12 12 11 10 10 10 11 11 10 9 8 9 10 9 9 10 10 10 9 8 7 6 7 8 10 13 15 17 17 17 17 17 18 19 21 22 23 24 24 24 25
10 11 12 11 11 10 10 11 11 9 8 8 9 10 10 10 10 10 9 9 8 7 7 7 8 10 12 14 16 16 15 14 14 15 17 19 20 21 22 22 23 23
9 11 12 12 11 10 9 9 9 8 7 7 9 10 10 10 9 9 9 9 9 9 9 9 10 11 12 13 15 15 14 12 12 12 14 16 17 18 20 21 21 22
9 10 11 12 11 10 9 8 8 8 7 7 8 10 10 10 9 9 9 10 11 11 11 11 11 11 12 13 14 15 13 10 10 10 11 13 14 16 18 20 21 21
8 10 11 12 12 11 9 8 8 8 7 7 8 9 9 10 10 10 10 11 11 11 11 11 11 11 11 12 13 14 14 10 8 8 9 10 12 15 17 19 20 21
8 9 10 11 11 11 10 9 8 8 8 8 8 7 8 9 10 11 11 11 11 11 11 11 10 9 10 12 13 14 14 12 9 7 7 8 10 13 15 16 18 20
7 8 10 10 11 11 10 10 9 9 9 8 7 7 8 9 10 11 11 11 11 12 11 11 10 10 11 14 14 14 14 13 11 8 7 7 9 12 14 14 14 17
6 7 9 9 9 10 10 10 10 10 9 9 8 8 8 8 9 9 10 11 11 12 12 11 11 11 13 15 16 16 15 14 13 11 9 9 10 11 13 13 12 14
6 7 8 8 8 9 10 10 10 10 10 10 10 9 9 9 8 8 9 10 11 12 12 12 12 12 14 15 16 17 16 15 14 13 12 11 11 11 13 12 11 12
5 6 6 7 7 8 9 10 10 10 11 11 11 11 10 9 9 8 9 10 10 11 12 13 13 13 14 15 16 17 17 16 15 14 13 12 11 11 11 10 9 10
4 5 5 6 6 7 8 9 9 10 11 12 12 12 11 10 9 9 10 9 10 11 12 13 13 13 14 15 16 17 18 18 17 16 15 13 12 10 9 9 9 8
3 4 4 5 6 7 8 8 9 9 11 12 13 12 11 11 11 10 10 10 10 11 12 13 12 13 14 15 16 17 17 18 18 17 16 15 13 12 10 9 9 9
3 3 3 4 5 7 7 8 9 9 11 12 12 12 11 12 12 11 12 12 12 12 12 12 12 13 14 15 15 16 17 17 17 17 16 16 15 14 12 11 10 10
3 3 3 3 5 6 7 8 9 9 10 11 12 12 12 12 13 12 12 13 13 12 12 12 13 13 14 14 15 15 16 16 16 16 16 15 15 14 13 12 11 11
4 4 3 2 4 6 6 7 8 8 9 11 11 12 12 12 13 13 13 12 12 12 12 13 13 14 14 14 14 15 15 16 16 16 15 15 15 14 13 12 12 12
6 5 4 3 4 5 5 6 7 8 9 10 11 11 12 12 13 13 12 12 12 12 13 13 14 14 14 14 14 15 15 16 16 16 16 16 15 14 13 13 13 12
7 6 5 3 3 4 5 6 6 7 8 9 10 11 11 12 13 12 12 11 12 12 13 13 13 13 14 14 15 15 16 16 16 15 15 16 16 15 14 14 14 14
8 7 6 5 3 4 5 5 6 7 7 8 9 10 11 12 12 12 12 11 12 12 12 12 12 13 13 14 14 15 16 16 16 16 15 17 17 15 14 14 14 15
Wind_Direction
19 19 17 18 17 16 16 13 20 36 46 52 54 51 53 58 60 63 68 67 56 46 41 39 40 41 41 40 40 41 42 42 43 43 46 53 59 62 61 59 56 55
19 19 18 17 15 14 12 11 21 41 49 53 57 53 54 58 60 62 67 68 57 46 42 42 42 42 41 40 42 44 43 43 45 44 43 46 51 54 55 51 47 45
22 21 21 18 15 16 13 13 27 48 52 54 59 56 54 56 60 62 65 68 58 47 45 44 44 44 42 40 41 44 45 44 44 46 46 44 44 44 43 41 40 39
23 23 23 19 16 19 19 20 36 55 54 55 60 57 54 53 57 61 63 66 59 50 49 47 45 45 42 39 38 39 42 43 43 46 48 48 47 44 41 38 36 35
23 22 22 19 15 19 23 27 40 54 55 55 58 58 56 53 55 60 62 63 58 53 54 52 46 44 41 38 36 36 37 38 39 41 44 46 47 46 44 42 38 35
23 22 22 19 15 18 25 30 37 48 56 54 54 57 58 54 53 56 59 60 55 55 60 57 47 42 39 36 35 34 33 34 35 36 39 43 44 44 43 42 41 37
24 23 24 21 16 17 26 33 35 45 57 52 50 56 57 55 53 52 55 56 54 56 62 59 48 40 36 34 34 34 32 31 32 34 38 42 43 42 41 40 40 39
27 24 26 23 17 17 27 35 35 42 55 53 51 55 54 52 52 51 50 50 52 57 59 56 46 36 30 29 32 34 33 32 32 33 37 41 42 41 40 39 38 38
30 27 29 24 18 17 27 36 36 40 51 54 53 52 50 49 47 48 47 44 45 51 52 47 36 28 25 24 27 32 34 34 33 34 37 39 40 39 37 36 36 36
33 32 32 26 20 19 26 36 38 40 49 53 51 49 50 49 44 44 45 41 40 42 39 32 23 21 22 22 25 30 34 36 34 34 39 40 38 36 34 31 32 34
36 36 34 29 24 23 28 36 38 41 51 53 51 48 49 50 47 44 43 40 39 38 34 28 24 23 25 27 28 29 32 38 36 34 39 38 32 31 30 27 27 31
39 40 37 32 28 29 35 39 38 43 53 56 52 48 46 49 50 47 44 40 38 37 36 35 33 31 31 32 33 32 32 37 37 34 38 36 27 24 26 25 21 23
41 42 39 34 30 34 41 41 39 44 54 55 53 49 44 45 48 48 47 42 38 37 34 32 31 29 32 35 36 35 34 35 36 32 31 31 26 22 22 22 18 16
44 43 41 35 31 36 43 43 42 46 51 50 51 52 47 42 41 43 45 42 37 33 28 25 23 23 31 37 37 36 34 33 32 25 19 18 18 17 17 18 17 13
50 47 42 36 31 36 44 45 44 46 46 44 45 49 49 44 37 34 34 35 34 31 25 22 23 30 41 43 39 35 32 29 25 17 8 360 358 5 9 12 16 13
56 52 46 38 33 36 43 46 45 46 45 42 40 43 47 46 40 32 28 28 30 28 26 25 28 37 46 46 41 35 29 25 20 14 7 356 353 358 4 10 15 12
61 57 51 42 35 38 44 46 45 46 45 42 42 42 42 42 39 32 28 28 27 25 25 27 32 38 44 45 42 36 30 25 19 13 7 0 357 359 2 10 17 13
65 62 55 46 41 42 46 48 47 47 47 44 44 43 41 39 36 32 31 30 27 23 23 26 32 37 42 43 40 35 30 27 23 18 12 4 1 3 5 14 23 19
73 67 57 50 48 48 51 52 49 50 50 48 46 45 42 38 36 36 36 35 32 28 24 24 29 35 40 40 38 33 28 26 24 22 19 14 10 10 13 23 31 28
89 78 62 53 52 54 56 56 52 51 52 50 48 47 46 44 42 41 39 38 38 34 28 25 27 34 39 38 35 31 26 23 22 22 22 20 19 17 15 20 28 28
117 96 75 57 53 57 60 58 54 53 53 53 52 50 49 50 47 44 42 40 39 37 32 29 31 37 40 38 33 28 23 20 19 18 20 21 22 22 19 19 22 22
138 119 97 72 59 60 64 61 57 56 55 54 52 49 49 51 50 46 44 41 39 36 34 33 35 39 41 37 32 26 22 18 16 15 16 17 20 22 22 23 25 26
150 137 122 91 69 66 65 63 61 58 55 53 51 49 49 51 51 48 44 41 39 36 35 36 36 38 38 35 31 28 25 22 20 19 19 18 18 19 19 21 23 27
156 147 141 115 84 76 70 68 66 60 54 53 52 50 49 50 50 48 43 40 39 38 38 37 36 36 35 32 30 29 28 27 25 23 24 24 21 20 21 21 23 25
163 156 152 137 107 93 85 79 74 65 56 54 53 51 50 48 48 46 42 38 38 37 37 36 34 34 33 31 29 28 26 27 25 22 25 26 23 22 25 26 28 29
168 162 158 151 137 116 103 95 86 73 62 57 56 54 52 48 45 44 41 37 35 35 34 33 30 30 29 27 26 25 23 24 24 23 26 28 25 23 25 28 31 31
Height
1516 1515 1514 1513 1513 1512 1511 1510 1510 1509 1508 1507 1507 1505 1504 1503 1503 1503 1502 1501 1500 1499 1498 1497 1495 1493 1491 1489 1487 1485 1483 1481 1479 1477 1476 1474 1473 1471 1470 1468 1467 1466
1517 1516 1515 1514 1513 1513 1512 1511 1510 1510 1509 1508 1507 1506 1505 1504 1504 1504 1503 1502 1502 1501 1499 1498 1497 1495 1493 1491 1490 1487 1485 1483 1481 1480 1479 1477 1476 1475 1473 1471 1470 1469
1518 1517 1516 1515 1514 1513 1512 1511 1511 1510 1509 1509 1508 1507 1506 1505 1505 1504 1504 1503 1503 1502 1501 1500 1498 1497 1495 1493 1492 1490 1487 1485 1483 1482 1481 1480 1478 1477 1475 1474 1472 1471
1518 1518 1517 1516 1515 1514 1513 1512 1512 1511 1510 1509 1509 1508 1507 1506 1506 1505 1505 1504 1504 1503 1502 1501 1500 1499 1497 1496 1494 1492 1490 1488 1486 1484 1483 1482 1480 1479 1477 1476 1474 1473
1519 1518 1517 1517 1516 1515 1514 1513 1512 1511 1511 1510 1509 1509 1508 1507 1507 1506 1506 1505 1505 1504 1503 1502 1501 1500 1499 1497 1496 1494 1492 1490 1489 1487 1485 1484 1482 1481 1480 1478 1476 1475
1519 1518 1518 1517 1516 1516 1515 1514 1513 1512 1511 1511 1510 1509 1509 1508 1508 1507 1506 1506 1506 1505 1505 1503 1503 1501 1500 1499 1497 1496 1494 1492 1491 1489 1488 1486 1484 1483 1481 1480 1478 1477
1520 1519 1518 1518 1517 1516 1515 1514 1513 1512 1512 1511 1511 1510 1510 1509 1508 1508 1507 1507 1506 1506 1505 1504 1504 1503 1502 1501 1499 1498 1496 1495 1493 1492 1490 1488 1487 1485 1483 1482 1480 1479
1520 1519 1518 1518 1517 1517 1516 1515 1514 1513 1512 1512 1512 1511 1510 1510 1509 1509 1508 1508 1507 1507 1506 1505 1505 1504 1503 1502 1501 1499 1498 1497 1495 1494 1492 1491 1489 1488 1486 1484 1483 1481
1521 1520 1519 1519 1518 1517 1516 1516 1514 1513 1513 1513 1512 1511 1511 1511 1510 1510 1509 1509 1508 1508 1507 1506 1506 1505 1504 1503 1502 1500 1499 1498 1497 1496 1494 1493 1492 1490 1489 1487 1486 1484
1521 1521 1520 1519 1519 1518 1517 1516 1515 1514 1513 1513 1513 1512 1512 1511 1511 1510 1510 1510 1509 1508 1508 1507 1506 1506 1505 1504 1503 1501 1500 1499 1499 1498 1496 1495 1494 1493 1491 1490 1488 1486
1522 1521 1521 1520 1519 1518 1517 1517 1516 1515 1514 1514 1513 1513 1513 1512 1512 1511 1511 1510 1510 1509 1509 1508 1507 1506 1505 1504 1503 1502 1502 1501 1500 1499 1498 1497 1496 1495 1493 1492 1490 1489
1523 1522 1521 1521 1520 1519 1518 1517 1516 1516 1515 1514 1514 1514 1513 1513 1513 1512 1512 1511 1510 1510 1509 1509 1508 1507 1506 1505 1504 1503 1503 1502 1501 1500 1500 1499 1498 1496 1495 1494 1492 1491
1523 1522 1522 1521 1521 1519 1518 1518 1517 1516 1515 1515 1514 1514 1514 1514 1513 1513 1513 1512 1511 1511 1510 1509 1509 1508 1507 1506 1505 1504 1503 1503 1502 1501 1501 1500 1499 1498 1497 1496 1494 1493
1524 1523 1522 1522 1521 1520 1519 1518 1518 1517 1516 1515 1515 1515 1515 1515 1514 1514 1514 1513 1513 1512 1511 1510 1509 1508 1507 1507 1506 1505 1504 1504 1503 1502 1502 1501 1500 1499 1498 1497 1496 1495
1524 1523 1523 1522 1522 1521 1520 1519 1519 1518 1517 1516 1516 1515 1515 1515 1515 1515 1514 1514 1514 1513 1512 1511 1510 1509 1508 1507 1506 1506 1505 1504 1504 1503 1503 1502 1501 1500 1499 1498 1497 1496
1524 1524 1524 1523 1523 1522 1521 1520 1519 1518 1518 1517 1516 1516 1516 1516 1516 1516 1515 1515 1514 1514 1513 1512 1511 1510 1509 1508 1507 1506 1506 1505 1504 1504 1503 1503 1502 1501 1500 1499 1498 1497
1525 1524 1524 1524 1523 1523 1522 1521 1520 1519 1518 1518 1517 1516 1516 1516 1516 1516 1516 1516 1515 1514 1514 1513 1512 1511 1510 1509 1509 1508 1507 1506 1505 1504 1504 1503 1503 1502 1501 1500 1499 1498
1525 1525 1525 1524 1524 1523 1523 1522 1521 1520 1519 1518 1517 1517 1517 1517 1517 1517 1517 1516 1516 1515 1514 1513 1513 1512 1511 1510 1510 1509 1508 1507 1506 1505 1504 1503 1503 1502 1501 1501 1500 1499
1525 1525 1525 1525 1525 1524 1523 1523 1522 1521 1520 1519 1518 1518 1518 1518 1517 1517 1517 1517 1516 1516 1515 1514 1514 1513 1512 1511 1511 1510 1509 1508 1507 1506 1505 1504 1503 1503 1502 1501 1501 1500
1525 1525 1525 1525 1525 1525 1524 1524 1523 1522 1521 1520 1519 1519 1519 1518 1518 1518 1518 1517 1517 1516 1516 1515 1515 1514 1513 1512 1512 1511 1510 1509 1508 1507 1506 1505 1504 1503 1503 1502 1501 1501
1524 1525 1525 1526 1525 1525 1525 1525 1524 1523 1522 1521 1520 1520 1520 1519 1519 1519 1519 1518 1518 1517 1517 1516 1516 1515 1514 1514 1513 1512 1511 1511 1509 1508 1507 1506 1505 1504 1503 1503 1502 1501
1524 1525 1525 1526 1526 1526 1525 1525 1524 1523 1522 1522 1521 1521 1521 1520 1520 1520 1519 1519 1519 1518 1518 1517 1517 1516 1516 1515 1514 1514 1513 1512 1511 1510 1509 1507 1506 1505 1504 1504 1503 1502
1524 1525 1525 1526 1526 1526 1526 1526 1525 1524 1523 1523 1522 1522 1521 1521 1521 1521 1520 1520 1520 1520 1519 1518 1518 1517 1517 1516 1516 1515 1514 1513 1512 1510 1509 1508 1507 1506 1505 1504 1504 1503
1524 1525 1525 1526 1526 1526 1526 1526 1525 1524 1524 1523 1523 1523 1522 1522 1522 1522 1522 1521 1521 1521 1520 1519 1519 1518 1518 1517 1516 1516 1515 1514 1513 1511 1510 1509 1508 1507 1506 1505 1504 1503
1523 1524 1525 1526 1526 1526 1526 1526 1526 1525 1525 1524 1524 1524 1523 1523 1523 1523 1523 1522 1522 1521 1521 1520 1520 1519 1519 1518 1517 1516 1516 1515 1514 1513 1511 1510 1509 1508 1507 1506 1505 1504
1523 1524 1525 1525 1526 1526 1526 1526 1526 1526 1526 1525 1525 1525 1524 1524 1524 1524 1523 1523 1523 1522 1522 1522 1521 1520 1520 1519 1518 1517 1517 1515 1514 1513 1512 1511 1510 1509 1508 1507 1506 1505